Temperature
17 17 17 17 17 18 18 18 18 18 18 18 18 18 18 18 18 18 18 17 17 17 17 17 17 17 18 17 17 17 17 17 17 17 17 17 17 17 17 17 17 17 17
17 17 17 17 17 17 17 17 18 18 18 18 18 18 18 18 18 18 18 17 17 17 17 17 17 17 17 17 17 17 17 17 17 17 17 17 17 17 17 17 17 17 17
16 17 17 17 17 17 17 17 17 18 18 18 18 18 18 18 18 18 18 17 17 17 17 17 17 17 17 17 17 17 17 17 17 17 17 17 17 17 17 17 17 17 17
16 16 16 17 17 17 17 17 17 17 18 18 18 18 18 18 18 18 18 18 17 17 17 17 17 17 17 17 17 17 17 17 17 17 17 17 17 17 17 17 17 17 17
15 16 16 16 17 17 17 17 17 17 17 17 18 18 18 18 18 18 18 18 18 17 17 17 17 17 17 17 17 17 17 17 17 17 17 16 16 17 17 16 17 16 16
15 15 15 16 16 16 17 17 17 17 17 17 17 17 17 18 18 18 18 18 17 17 17 17 17 17 17 17 17 17 17 17 17 17 17 17 17 16 16 16 16 16 16
14 15 15 15 16 16 16 16 17 16 17 17 17 17 17 17 17 17 17 17 17 17 17 17 17 17 17 17 17 17 17 17 17 17 17 16 16 16 16 16 16 16 16
14 14 15 15 15 15 16 16 16 16 16 16 16 16 16 16 17 17 17 17 17 17 17 17 17 17 17 17 17 17 17 16 17 17 16 16 16 16 16 16 16 16 16
14 14 14 14 15 15 15 15 15 16 16 16 16 16 16 16 16 17 17 17 17 17 17 17 17 17 17 17 17 17 16 16 16 16 16 16 16 16 16 16 16 16 16
13 13 14 14 14 15 15 15 15 15 15 15 16 16 16 16 16 16 17 17 17 17 17 17 17 17 17 17 17 17 16 16 16 16 16 16 16 16 16 16 16 16 16
13 13 13 14 14 14 14 15 15 15 15 15 15 15 15 15 16 16 16 17 17 17 17 17 17 17 17 17 17 17 16 16 16 16 16 16 16 16 16 16 16 16 16
13 13 13 13 14 14 14 14 15 15 15 15 15 15 15 15 15 16 16 16 16 17 17 17 17 17 17 17 17 16 16 16 16 16 16 16 16 16 16 16 16 16 15
12 13 13 13 13 13 14 14 14 14 15 15 15 15 15 15 15 15 15 15 16 16 16 16 16 16 16 16 16 16 16 16 16 16 16 16 16 16 15 15 15 15 15
12 12 13 13 13 13 13 14 14 14 14 14 15 15 15 15 15 15 15 15 15 15 16 16 16 16 16 16 16 16 16 16 16 16 15 15 15 15 15 15 15 15 15
12 12 12 12 13 13 13 13 14 14 14 14 14 14 14 14 14 14 15 14 15 15 15 16 16 16 16 16 16 16 16 15 15 15 15 15 15 15 15 15 15 14 14
11 12 12 12 12 13 13 13 13 13 14 14 14 14 14 14 14 14 14 14 14 14 15 15 15 15 15 15 15 15 15 15 15 15 15 15 15 15 14 14 14 14 14
11 12 12 12 12 12 12 13 13 13 13 13 13 14 14 14 14 14 14 14 14 14 14 14 15 15 15 15 15 15 15 15 15 14 14 14 14 14 14 14 14 14 14
11 11 12 12 12 12 12 12 12 13 13 13 13 13 13 13 14 14 14 14 14 14 14 14 14 14 14 14 14 14 14 14 14 14 14 14 14 14 14 14 14 13 13
11 11 12 12 12 12 12 12 12 12 13 13 13 13 13 13 13 13 13 13 13 13 13 14 14 14 14 14 14 14 14 14 14 14 13 14 13 13 13 13 13 13 13
11 11 11 11 12 12 12 12 12 12 12 12 13 13 13 13 13 13 13 13 13 13 13 13 14 13 13 13 13 13 13 13 13 13 13 13 13 13 13 12 12 12 13
11 11 11 11 11 11 11 12 12 12 12 12 12 13 13 13 13 13 13 13 13 13 13 13 13 13 13 13 13 13 13 13 12 12 12 12 12 12 12 12 12 12 12
11 11 11 11 11 11 11 11 11 12 12 12 12 12 13 13 13 13 13 13 13 13 13 13 13 13 13 13 13 13 13 12 12 12 12 12 12 12 11 11 11 12 12
11 11 11 11 11 11 11 11 11 11 12 12 12 12 12 12 13 13 13 13 13 13 13 13 13 13 13 13 13 13 12 12 12 12 12 11 11 11 11 11 11 11 11
11 11 11 11 11 11 11 11 11 11 12 12 12 12 12 12 12 12 12 12 12 12 13 13 13 13 13 13 13 13 12 12 12 11 11 11 11 10 10 10 10 10 10
11 11 11 11 11 11 11 11 11 11 12 12 12 12 12 12 12 12 12 12 12 12 12 12 12 12 12 12 12 12 12 12 11 11 11 11 10 10 10 10 10 10 10
11 11 11 11 11 11 11 11 11 11 11 11 11 11 11 11 11 11 12 12 12 12 12 12 12 12 12 12 12 12 12 12 12 11 11 11 10 10 10 9 9 9 9
Wind_Speed
4 3 4 6 7 8 7 5 6 6 5 5 6 6 6 7 8 8 8 9 10 9 9 9 9 9 9 9 9 9 8 8 8 8 8 9 8 8 8 8 8 8 7
4 3 4 4 5 7 7 6 6 5 5 4 5 5 6 7 8 9 9 10 10 11 11 10 10 10 10 10 10 9 9 8 8 8 8 9 8 8 8 8 8 7 6
5 4 4 4 4 7 7 5 5 4 4 4 5 5 5 7 7 9 9 9 9 11 12 12 11 11 11 11 10 10 10 9 8 8 8 8 8 8 7 7 6 6 5
6 4 4 4 5 5 4 4 4 4 4 4 3 3 4 4 6 8 9 9 9 9 11 12 12 11 11 11 11 10 10 10 9 9 9 8 8 7 7 7 6 5 5
6 4 4 4 4 4 4 5 4 4 4 4 3 2 2 3 4 6 6 8 9 10 10 11 12 12 12 12 11 11 11 10 10 10 9 8 8 7 7 6 6 5 5
6 4 3 4 4 4 4 4 4 4 4 4 3 1 1 2 2 4 5 6 8 9 10 9 10 11 12 11 11 11 11 11 11 10 9 9 9 8 7 6 6 5 5
5 3 3 3 3 4 5 5 4 4 3 3 2 0 1 0 2 3 3 4 5 8 9 9 9 9 9 11 12 12 12 12 11 11 10 10 9 8 7 7 6 6 5
5 3 3 3 3 3 4 4 4 3 3 4 3 2 1 1 2 2 3 4 5 5 6 9 10 10 10 9 11 13 13 12 12 11 11 10 10 9 8 8 7 6 6
5 4 3 3 3 3 4 5 5 5 4 4 3 4 4 4 2 1 3 4 4 4 5 6 8 10 10 10 10 12 13 13 12 12 12 11 11 10 9 8 8 7 6
5 4 3 2 2 3 4 4 5 5 5 4 3 3 2 3 3 2 1 2 3 4 5 5 6 8 10 10 11 12 13 14 13 13 12 12 11 11 10 9 9 8 7
4 4 3 2 2 2 3 4 4 5 5 5 4 3 2 1 1 2 2 2 1 2 3 4 4 5 8 9 10 12 14 14 14 13 12 12 11 11 11 10 9 8 8
4 4 3 2 2 2 3 3 4 5 5 5 5 4 4 4 4 3 3 2 2 2 2 3 3 4 6 8 9 10 12 14 14 13 12 11 11 11 11 10 10 9 8
4 5 4 3 2 2 3 2 3 4 5 5 6 5 4 4 3 3 3 3 2 1 1 2 3 3 5 7 7 9 10 12 12 12 12 11 11 10 10 10 9 9 8
4 5 4 3 3 2 2 2 2 3 3 4 6 6 4 4 4 3 4 4 3 1 2 3 2 3 4 6 7 9 8 10 11 11 10 10 10 9 9 8 8 7 7
5 6 5 4 3 3 2 1 1 2 2 3 4 5 4 4 4 4 4 4 5 4 4 3 2 3 4 5 7 8 7 8 9 10 10 10 9 8 8 8 7 6 6
6 6 6 5 4 3 2 1 1 1 2 2 2 3 3 3 3 4 4 4 4 4 4 3 3 2 3 4 7 7 7 8 8 8 9 9 9 8 8 7 7 7 6
7 6 6 5 5 4 3 1 1 1 2 2 2 3 3 3 3 4 4 4 3 3 3 2 1 1 3 4 4 6 7 7 7 8 8 9 9 9 8 8 8 7 7
7 7 6 5 5 4 3 1 1 1 1 2 2 2 3 3 3 3 4 5 4 4 4 3 2 1 2 4 4 4 5 6 7 8 9 9 9 9 8 8 8 8 7
7 7 7 6 5 4 3 2 1 0 1 2 3 3 3 3 4 3 5 5 4 4 3 4 3 1 2 3 4 4 5 5 7 8 9 9 9 9 9 9 9 8 8
7 8 7 6 6 5 4 3 2 2 1 1 1 2 2 3 4 4 4 5 5 5 5 4 4 3 2 3 4 5 5 4 5 7 9 10 11 12 11 10 9 8 8
8 7 8 8 7 5 5 5 3 2 2 2 2 1 1 1 3 3 4 5 6 5 5 5 4 3 4 4 5 4 6 6 4 4 6 6 8 8 8 9 9 9 9
8 8 8 8 8 7 8 8 6 4 3 3 3 2 2 1 1 2 3 5 6 7 7 5 4 5 5 4 5 6 6 5 3 3 4 5 5 6 6 8 9 10 10
8 8 8 8 8 8 10 10 10 6 4 4 3 3 3 3 3 3 4 5 3 4 6 6 6 5 6 6 7 7 6 5 4 5 5 4 4 4 5 8 10 10 10
6 6 8 8 8 9 12 11 11 7 6 5 5 4 3 3 3 4 4 5 4 3 3 4 5 5 5 7 7 7 7 7 6 4 3 4 3 3 3 6 9 10 10
5 6 6 8 8 9 12 11 9 5 6 6 6 5 4 4 5 6 5 5 5 5 6 8 8 8 10 11 10 9 8 8 5 3 2 3 4 3 2 3 5 8 9
4 5 6 7 7 8 12 12 10 5 5 5 6 6 7 6 7 6 5 5 6 4 5 7 7 8 8 8 9 7 8 8 5 3 2 3 4 3 3 1 2 4 6
Wind_Direction
254 246 239 240 237 232 226 218 211 209 209 214 220 226 231 233 235 235 235 235 229 218 208 196 187 179 173 168 162 158 153 151 148 148 149 147 142 139 137 134 131 128 128
259 249 245 238 235 231 228 221 213 210 210 205 217 221 230 233 232 229 229 232 230 222 214 204 197 189 182 177 172 169 165 164 160 156 153 149 145 142 140 141 138 135 135
259 251 245 241 235 230 226 220 214 202 209 209 219 222 223 228 225 221 219 219 223 223 217 210 203 197 191 186 182 177 173 171 168 164 158 153 151 149 151 149 146 143 137
266 255 248 245 237 228 216 210 204 197 210 208 213 223 224 221 219 217 211 211 211 215 218 215 207 202 198 194 190 185 181 178 176 174 169 164 162 160 159 158 158 157 152
274 256 249 251 240 226 220 221 206 192 208 210 211 219 224 226 221 215 206 207 207 207 210 216 213 207 203 200 198 193 189 187 183 178 175 173 173 173 172 171 172 172 167
283 267 249 245 235 224 220 213 202 194 201 196 210 216 221 235 220 216 212 205 206 208 208 209 212 213 210 206 204 201 197 193 189 186 184 184 186 185 185 182 180 178 173
293 274 262 248 231 224 222 210 192 190 197 163 143 120 348 302 228 223 209 202 206 208 205 206 204 206 211 211 208 206 205 200 197 196 195 194 191 189 188 189 188 186 184
307 286 256 247 234 228 219 206 186 174 187 170 156 136 199 293 266 228 200 211 211 196 203 209 204 203 205 206 210 209 209 208 205 203 201 197 194 194 194 193 196 197 196
312 302 271 249 236 220 220 212 198 184 190 192 180 161 167 209 225 255 217 213 204 198 204 203 205 205 205 206 209 212 212 212 212 209 206 203 199 198 200 201 201 203 205
319 316 307 281 256 237 227 220 207 197 185 190 191 192 170 160 169 197 250 209 196 202 202 206 205 205 205 206 210 213 215 213 215 214 212 209 205 203 205 206 207 211 212
325 326 321 305 280 252 238 227 211 197 192 188 181 172 168 172 173 163 202 210 206 211 201 201 198 201 205 206 210 215 215 214 215 217 216 214 210 208 208 209 211 213 216
329 334 325 316 295 270 250 235 216 203 202 194 185 178 172 177 186 175 186 197 208 219 198 195 202 203 201 202 209 213 212 212 212 214 216 214 212 212 212 210 212 215 217
331 329 330 319 299 280 264 244 218 213 203 199 195 193 194 198 173 169 168 173 181 210 203 208 209 202 201 198 207 209 208 206 207 210 211 210 212 213 214 214 214 214 211
319 322 326 320 307 293 276 246 225 217 204 202 201 193 195 198 187 184 174 165 164 195 216 222 200 200 195 188 197 196 201 200 200 203 201 200 205 206 205 206 206 200 200
336 343 341 339 329 316 295 252 231 224 207 203 200 194 194 194 188 188 182 178 171 183 213 214 202 199 190 182 185 183 185 189 190 192 189 187 187 187 189 194 193 188 184
346 345 344 343 339 338 330 287 240 234 203 202 193 185 190 194 187 185 187 184 186 180 196 199 202 183 172 177 177 170 169 169 171 173 173 174 172 170 173 178 175 169 166
348 346 343 342 340 336 330 307 254 245 210 200 195 186 193 189 190 188 183 182 188 177 181 183 172 145 152 157 149 148 146 141 143 154 155 158 158 157 157 157 156 155 154
348 348 347 346 345 341 336 336 283 228 207 199 196 186 197 196 195 192 187 188 187 176 166 172 168 156 149 151 146 140 129 134 131 141 141 139 142 144 146 142 139 140 144
354 356 358 359 355 351 353 353 352 49 235 207 190 188 196 190 202 203 192 188 185 180 165 164 165 149 133 135 132 122 119 114 122 126 126 127 131 133 136 133 134 133 138
3 1 0 1 1 2 6 10 24 46 33 24 177 195 204 201 205 200 195 192 184 176 165 159 157 152 145 141 141 138 128 112 109 107 104 106 110 111 115 118 121 122 126
9 3 7 7 5 6 13 17 30 50 46 39 33 13 251 222 215 199 189 185 179 172 163 164 165 160 162 161 158 145 136 122 101 107 105 94 95 91 92 102 110 114 117
9 13 12 10 10 11 19 35 47 48 49 41 22 4 8 44 88 138 156 164 172 171 170 169 172 172 171 159 145 147 143 141 132 127 115 99 92 91 82 91 103 109 111
12 15 13 13 8 4 28 43 46 48 43 33 29 28 40 48 62 80 88 102 115 141 163 165 168 173 166 162 153 154 151 138 130 142 123 105 95 91 77 92 99 102 107
10 12 11 10 13 18 31 41 43 44 46 37 32 37 50 42 68 90 91 82 73 74 129 153 156 161 155 153 154 146 136 115 99 100 106 111 110 95 78 76 93 99 103
12 13 10 13 14 11 24 34 38 37 41 33 28 34 47 54 73 90 97 95 84 67 77 102 112 121 128 133 138 134 136 134 126 116 89 115 127 108 85 65 72 90 97
7 10 16 14 13 10 16 27 33 40 41 33 28 28 38 51 67 78 90 101 94 78 85 88 88 91 102 116 127 143 151 147 135 136 142 122 139 137 122 81 63 75 89
Height
1531 1532 1533 1534 1535 1536 1537 1538 1539 1540 1541 1542 1544 1545 1547 1549 1550 1552 1553 1554 1554 1554 1555 1555 1556 1557 1558 1559 1561 1562 1563 1564 1565 1566 1567 1568 1569 1569 1571 1572 1573 1574 1574
1527 1528 1529 1530 1531 1532 1534 1535 1536 1537 1538 1540 1541 1543 1545 1547 1548 1550 1551 1552 1553 1553 1554 1554 1555 1556 1558 1559 1560 1561 1562 1564 1565 1566 1567 1568 1568 1569 1570 1571 1572 1573 1574
1523 1523 1524 1526 1527 1529 1530 1531 1533 1534 1535 1537 1539 1540 1542 1544 1546 1548 1549 1550 1551 1552 1553 1553 1554 1555 1557 1558 1559 1561 1562 1563 1564 1565 1566 1567 1568 1569 1570 1571 1572 1573 1574
1518 1519 1520 1521 1523 1524 1525 1527 1529 1530 1532 1534 1536 1538 1540 1542 1544 1545 1547 1548 1550 1550 1551 1552 1553 1554 1555 1557 1558 1560 1561 1562 1564 1565 1566 1567 1568 1569 1570 1571 1571 1572 1573
1514 1514 1515 1516 1518 1519 1521 1522 1524 1526 1528 1530 1532 1534 1537 1539 1541 1542 1544 1546 1547 1548 1549 1551 1552 1553 1554 1555 1557 1558 1560 1561 1563 1564 1565 1566 1567 1568 1569 1570 1571 1571 1572
1509 1510 1511 1512 1513 1515 1516 1518 1519 1521 1524 1526 1528 1530 1533 1535 1537 1539 1541 1543 1545 1546 1547 1549 1550 1551 1552 1554 1555 1557 1558 1560 1561 1563 1564 1565 1566 1567 1568 1569 1570 1570 1571
1505 1506 1506 1507 1509 1510 1512 1514 1515 1517 1519 1522 1524 1526 1528 1530 1532 1535 1537 1539 1542 1544 1545 1547 1548 1549 1550 1552 1553 1555 1556 1558 1559 1561 1562 1563 1565 1566 1567 1568 1569 1569 1570
1502 1502 1503 1503 1504 1506 1507 1509 1511 1512 1515 1517 1520 1522 1524 1527 1528 1531 1533 1536 1538 1540 1542 1544 1546 1547 1548 1550 1551 1553 1554 1556 1557 1559 1560 1562 1563 1564 1565 1566 1567 1568 1569
1499 1499 1499 1499 1500 1502 1503 1504 1506 1508 1510 1513 1515 1518 1520 1521 1524 1526 1528 1531 1534 1537 1539 1541 1543 1544 1546 1548 1549 1551 1552 1554 1555 1557 1558 1560 1561 1562 1564 1565 1566 1566 1567
1496 1495 1495 1496 1497 1498 1499 1500 1502 1504 1506 1508 1511 1513 1516 1518 1520 1521 1524 1527 1530 1532 1535 1537 1539 1541 1543 1545 1547 1548 1550 1552 1553 1555 1556 1558 1559 1560 1562 1563 1564 1565 1565
1494 1493 1493 1492 1493 1494 1495 1496 1498 1499 1501 1503 1506 1508 1511 1514 1516 1518 1519 1522 1525 1528 1531 1533 1536 1538 1540 1542 1544 1545 1547 1549 1550 1552 1553 1555 1557 1558 1559 1560 1562 1563 1563
1492 1491 1490 1490 1490 1491 1492 1493 1494 1495 1497 1499 1502 1504 1506 1509 1512 1514 1516 1518 1520 1524 1526 1529 1531 1534 1536 1538 1540 1542 1544 1546 1547 1549 1551 1552 1554 1556 1557 1558 1559 1560 1561
1490 1489 1489 1488 1488 1488 1489 1490 1491 1492 1493 1495 1497 1500 1502 1505 1508 1510 1513 1515 1517 1519 1522 1524 1527 1529 1531 1534 1536 1538 1540 1542 1544 1546 1547 1549 1551 1553 1554 1555 1557 1558 1559
1490 1488 1487 1486 1486 1486 1486 1487 1488 1489 1490 1492 1494 1496 1498 1501 1503 1506 1508 1511 1513 1516 1518 1520 1522 1525 1527 1529 1532 1534 1536 1538 1540 1542 1544 1546 1548 1549 1551 1553 1554 1555 1556
1489 1487 1486 1485 1484 1484 1484 1484 1485 1486 1487 1489 1491 1492 1494 1497 1499 1501 1504 1507 1511 1512 1514 1516 1518 1520 1523 1525 1528 1530 1532 1534 1536 1538 1541 1542 1544 1546 1548 1550 1551 1552 1553
1489 1487 1485 1484 1483 1482 1481 1481 1482 1483 1485 1486 1488 1490 1491 1493 1496 1498 1500 1503 1505 1508 1510 1512 1514 1517 1519 1521 1524 1526 1528 1531 1533 1535 1537 1539 1541 1543 1545 1546 1548 1549 1550
1489 1487 1485 1483 1482 1480 1480 1480 1480 1481 1482 1484 1485 1487 1489 1491 1492 1494 1497 1499 1501 1504 1506 1509 1511 1513 1516 1518 1521 1523 1525 1527 1530 1532 1534 1536 1538 1540 1542 1543 1545 1546 1547
1490 1487 1485 1483 1481 1480 1479 1478 1479 1479 1480 1482 1483 1485 1486 1488 1490 1491 1494 1496 1498 1500 1503 1505 1508 1510 1512 1515 1517 1520 1522 1524 1527 1529 1531 1533 1535 1536 1539 1540 1541 1543 1544
1490 1487 1485 1483 1481 1480 1479 1478 1478 1478 1479 1480 1481 1483 1484 1486 1487 1488 1490 1492 1494 1497 1499 1502 1504 1507 1509 1512 1514 1517 1519 1521 1524 1526 1528 1530 1532 1534 1536 1537 1538 1540 1541
1491 1488 1486 1484 1482 1480 1479 1478 1478 1477 1478 1479 1480 1481 1482 1483 1484 1486 1487 1489 1491 1493 1496 1499 1502 1504 1507 1509 1512 1514 1517 1519 1521 1523 1526 1528 1530 1531 1533 1535 1536 1537 1538
1492 1490 1487 1485 1483 1481 1480 1479 1478 1478 1478 1478 1479 1480 1481 1482 1483 1484 1485 1487 1489 1490 1493 1496 1499 1501 1504 1506 1509 1512 1514 1517 1519 1522 1524 1526 1528 1529 1531 1533 1535 1535 1536
1495 1493 1490 1487 1485 1483 1481 1480 1479 1479 1479 1479 1479 1479 1480 1481 1482 1483 1484 1485 1487 1488 1490 1493 1496 1498 1501 1504 1507 1509 1512 1515 1517 1520 1522 1524 1526 1528 1530 1532 1533 1534 1535
1498 1495 1492 1490 1487 1485 1483 1482 1481 1480 1480 1479 1479 1479 1480 1480 1481 1482 1483 1484 1485 1487 1489 1491 1493 1496 1498 1501 1504 1507 1510 1513 1515 1518 1521 1523 1525 1527 1530 1531 1532 1533 1534
1501 1498 1495 1492 1489 1487 1486 1484 1483 1482 1481 1481 1480 1480 1481 1481 1481 1482 1483 1484 1485 1486 1487 1489 1492 1494 1497 1500 1503 1506 1508 1511 1514 1517 1520 1522 1524 1527 1529 1530 1532 1533 1533
1503 1500 1498 1495 1492 1490 1489 1487 1486 1485 1483 1483 1482 1482 1482 1482 1482 1483 1483 1484 1485 1486 1488 1489 1491 1494 1496 1499 1501 1505 1507 1510 1512 1515 1518 1521 1523 1526 1528 1529 1531 1532 1533
1505 1503 1500 1498 1496 1493 1492 1490 1489 1487 1486 1485 1485 1485 1485 1485 1485 1485 1485 1485 1486 1487 1489 1490 1492 1494 1496 1499 1502 1504 1507 1509 1511 1514 1517 1520 1522 1525 1527 1529 1530 1531 1532